DW4421 Weather Reports


time (UTC)temp
C
wind
direction
speed
KPH
gust
KPH
rain 1hr
cm
rain 24hr
cm
rain mn
cm
humidity
%
barometer
mb
20260906143445 29 248 0.0 4.8 0.00 0.00 0.00 75 1013.6
20260906142942 28 248 1.6 4.8 0.00 0.00 0.00 77 1013.6
20260906142433 28 292 3.2 4.8 0.00 0.00 0.00 76 1013.6
20260906141935 28 248 3.2 4.8 0.00 0.00 0.00 76 1013.6
20260906141702 28 292 3.2 4.8 0.00 0.00 0.00 79 1013.6
20260906140932 27 0 1.6 4.8 0.00 0.00 0.00 87 1013.6
20260906140432 27 22 0.0 6.4 0.00 0.00 0.00 88 1013.6
20260906140206 26 158 1.6 6.4 0.00 0.00 0.00 89 1013.6
20260906135431 26 158 4.8 6.4 0.00 0.00 0.00 92 1013.6
20260906134931 25 0 1.6 3.2 0.00 0.00 0.00 93 1013.6
20260906134432 25 0 0.0 3.2 0.00 0.00 0.00 93 1013.6
20260906133934 25 0 1.6 3.2 0.00 0.00 0.00 94 1013.6
20260906133422 24 0 0.0 0.0 0.00 0.00 0.00 94 1013.6
20260906132912 24 0 0.0 0.0 0.00 0.00 0.00 94 1013.6
20260906132412 24 0 0.0 0.0 0.00 0.00 0.00 94 1013.6
20260906131911 24 0 0.0 0.0 0.00 0.00 0.00 94 1013.6
20260906131412 24 0 0.0 0.0 0.00 0.00 0.00 94 1013.6
20260906130913 24 0 0.0 0.0 0.00 0.00 0.00 94 1013.6
20260906130414 24 0 0.0 0.0 0.00 0.00 0.00 94 1013.6
20260906125915 24 0 0.0 0.0 0.00 0.00 0.00 94 1013.6
20260906125412 24 0 0.0 0.0 0.00 0.00 0.00 94 1013.6
20260906124813 24 0 0.0 0.0 0.00 0.00 0.00 94 1013.6
20260906124314 23 0 0.0 0.0 0.00 0.00 0.00 94 1013.6
20260906124042 23 0 0.0 0.0 0.00 0.00 0.00 94 1013.6
20260906123231 23 0 0.0 0.0 0.00 0.00 0.00 94 1013.6
20260906122732 23 0 0.0 0.0 0.00 0.00 0.00 95 1013.6
20260906122230 23 0 0.0 0.0 0.00 0.00 0.00 95 1013.6
20260906121732 23 0 0.0 0.0 0.00 0.00 0.00 95 1013.6
20260906121232 23 0 0.0 1.6 0.00 0.00 0.00 94 1013.6
20260906120732 23 0 0.0 1.6 0.00 0.00 0.00 94 1013.6
20260906120231 23 0 0.0 0.0 0.00 0.00 0.00 94 1013.6
20260906115731 23 0 0.0 0.0 0.00 0.00 0.00 94 1013.6
20260906115235 23 0 0.0 0.0 0.00 0.00 0.00 94 1013.6
20260906114729 23 0 0.0 0.0 0.00 0.00 0.00 94 1013.6
20260906114212 23 0 0.0 0.0 0.00 0.00 0.00 94 1013.6
20260906113712 23 0 0.0 0.0 0.00 0.00 0.00 94 1013.6
20260906113212 23 0 0.0 0.0 0.00 0.00 0.00 94 1013.6
20260906112710 23 0 0.0 0.0 0.00 0.00 0.00 94 1013.6
20260906112211 23 0 0.0 0.0 0.00 0.00 0.00 94 1013.6
20260906111942 23 0 0.0 0.0 0.00 0.00 0.00 94 1013.6
20260906111212 23 0 0.0 0.0 0.00 0.00 0.00 94 1013.6
20260906110943 23 0 0.0 0.0 0.00 0.00 0.00 94 1013.6
20260906110212 23 0 0.0 0.0 0.00 0.00 0.00 94 1013.6
20260906105712 23 0 0.0 0.0 0.00 0.00 0.00 94 1013.6
20260906105211 23 0 0.0 0.0 0.00 0.00 0.00 94 1013.6
20260906104712 23 0 0.0 0.0 0.00 0.00 0.00 94 1013.6
20260906104207 23 0 0.0 0.0 0.00 0.00 0.00 94 1012.6
20260906103531 23 0 0.0 0.0 0.00 0.00 0.00 94 1012.6
20260906103031 22 0 0.0 0.0 0.00 0.00 0.00 93 1012.6
20260906102531 22 0 0.0 0.0 0.00 0.00 0.00 93 1012.6
20260906102032 22 0 0.0 0.0 0.00 0.00 0.00 93 1012.6
20260906101532 22 0 0.0 0.0 0.00 0.00 0.00 94 1012.6
20260906101031 22 0 0.0 0.0 0.00 0.00 0.00 94 1012.6
20260906100531 22 0 0.0 0.0 0.00 0.00 0.00 93 1012.6
20260906100032 22 0 0.0 0.0 0.00 0.00 0.00 93 1012.6
20260906095533 22 0 0.0 0.0 0.00 0.00 0.00 93 1011.6
20260906095034 22 0 0.0 0.0 0.00 0.00 0.00 93 1011.6
20260906094501 22 0 0.0 0.0 0.00 0.00 0.00 93 1012.6
20260906094001 22 0 0.0 0.0 0.00 0.00 0.00 93 1012.6
20260906093501 22 0 0.0 0.0 0.00 0.00 0.00 93 1012.6
20260906093238 22 0 0.0 0.0 0.00 0.00 0.00 93 1011.6
20260906093002 22 0 0.0 0.0 0.00 0.00 0.00 93 1011.6
20260906092001 22 0 0.0 0.0 0.00 0.00 0.00 93 1011.6
20260906091502 22 0 0.0 0.0 0.00 0.00 0.00 93 1011.6
20260906091232 22 0 0.0 0.0 0.00 0.00 0.00 93 1011.6
20260906090504 22 0 0.0 0.0 0.00 0.00 0.00 93 1011.6
20260906090006 22 0 0.0 0.0 0.00 0.00 0.00 93 1011.6
20260906085505 22 0 0.0 0.0 0.00 0.00 0.00 93 1012.6
20260906084854 22 0 0.0 0.0 0.00 0.00 0.00 92 1012.6
20260906084338 22 0 0.0 0.0 0.00 0.00 0.00 92 1012.6
20260906083754 22 0 0.0 0.0 0.00 0.00 0.00 92 1012.6
20260906083151 22 0 0.0 0.0 0.00 0.00 0.00 92 1012.6
20260906082925 22 0 0.0 0.0 0.00 0.00 0.00 92 1012.6
20260906082155 22 0 0.0 0.0 0.00 0.00 0.00 91 1012.6
20260906081652 22 0 0.0 0.0 0.00 0.00 0.00 92 1012.6
20260906081152 22 0 0.0 0.0 0.00 0.00 0.00 92 1012.6
20260906080652 22 0 0.0 1.6 0.00 0.00 0.00 92 1012.6
20260906080154 22 0 0.0 1.6 0.00 0.00 0.00 91 1012.6
20260906075654 22 0 1.6 1.6 0.00 0.00 0.00 91 1012.6
20260906075152 22 0 0.0 0.0 0.00 0.00 0.00 91 1012.6
20260906074632 22 0 0.0 0.0 0.00 0.00 0.00 91 1012.6
20260906074403 22 0 0.0 0.0 0.00 0.00 0.00 91 1013.6
20260906073632 23 0 0.0 0.0 0.00 0.00 0.00 91 1013.6
20260906073405 23 0 0.0 0.0 0.00 0.00 0.00 91 1013.6
20260906072521 23 0 0.0 0.0 0.00 0.00 0.00 91 1012.6
20260906072020 23 0 0.0 0.0 0.00 0.00 0.00 91 1012.6
20260906071520 23 0 0.0 0.0 0.00 0.00 0.00 91 1012.6
20260906071022 23 0 0.0 3.2 0.00 0.00 0.00 91 1011.6
20260906070514 23 0 0.0 3.2 0.00 0.00 0.00 91 1011.6
20260906065954 23 0 0.0 0.0 0.00 0.00 0.00 90 1013.6
20260906065452 23 0 0.0 0.0 0.00 0.00 0.00 90 1013.6
20260906065223 23 0 0.0 0.0 0.00 0.00 0.00 90 1013.6
20260906064724 23 0 0.0 0.0 0.00 0.00 0.00 90 1013.6
20260906063949 23 0 0.0 0.0 0.00 0.00 0.00 90 1013.6
20260906063401 23 0 0.0 0.0 0.00 0.00 0.00 90 1013.6
20260906062904 23 0 0.0 0.0 0.00 0.00 0.00 90 1011.6
20260906062354 23 0 0.0 1.6 0.00 0.00 0.00 90 1011.6
20260906061854 23 0 0.0 1.6 0.00 0.00 0.00 90 1011.6
20260906061350 23 0 0.0 0.0 0.00 0.00 0.00 89 1012.6
20260906060852 23 0 0.0 0.0 0.00 0.00 0.00 89 1012.6
20260906060352 23 0 0.0 0.0 0.00 0.00 0.00 89 1012.6
20260906055851 23 0 0.0 0.0 0.00 0.00 0.00 89 1012.6
20260906055351 23 0 0.0 0.0 0.00 0.00 0.00 89 1012.6
20260906054851 23 0 0.0 0.0 0.00 0.00 0.00 89 1012.6
20260906054351 23 0 0.0 0.0 0.00 0.00 0.00 89 1013.6
20260906053851 23 0 0.0 0.0 0.00 0.00 0.00 89 1013.6
20260906053351 23 0 0.0 0.0 0.00 0.00 0.00 89 1013.6
20260906053125 23 0 0.0 0.0 0.00 0.00 0.00 89 1013.6
20260906052350 23 0 0.0 0.0 0.00 0.00 0.00 89 1013.6
20260906051847 23 0 0.0 0.0 0.00 0.00 0.00 88 1013.6
20260906051320 23 0 0.0 0.0 0.00 0.00 0.00 88 1013.6
20260906050825 23 0 0.0 0.0 0.00 0.00 0.00 88 1013.6
20260906050324 23 0 0.0 1.6 0.00 0.00 0.00 88 1013.6
20260906045812 23 0 0.0 1.6 0.00 0.00 0.00 88 1013.6
20260906045310 23 338 0.0 0.0 0.00 0.00 0.00 87 1013.6
20260906044811 23 338 0.0 0.0 0.00 0.00 0.00 87 1013.6
20260906044311 23 338 0.0 0.0 0.00 0.00 0.00 87 1013.6
20260906044044 23 338 0.0 0.0 0.00 0.00 0.00 86 1013.6
20260906043312 24 338 0.0 0.0 0.00 0.00 0.00 86 1013.6
20260906042752 24 338 0.0 0.0 0.00 0.00 0.00 86 1013.6
20260906042252 24 338 0.0 0.0 0.00 0.00 0.00 85 1013.6
20260906042022 24 338 0.0 1.6 0.00 0.00 0.00 85 1013.6
20260906041252 24 338 0.0 1.6 0.00 0.00 0.00 85 1013.6
20260906040751 24 338 0.0 0.0 0.00 0.00 0.00 84 1013.6
20260906040251 24 338 0.0 0.0 0.00 0.00 0.00 84 1013.6
20260906035752 24 338 0.0 0.0 0.00 0.00 0.00 84 1013.6
20260906035252 24 338 0.0 0.0 0.00 0.00 0.00 83 1013.6
20260906034753 24 338 0.0 0.0 0.00 0.00 0.00 83 1013.6
20260906034254 24 338 0.0 0.0 0.00 0.00 0.00 83 1013.6
20260906033642 24 338 0.0 0.0 0.00 0.00 0.00 82 1013.6
20260906033141 24 338 0.0 0.0 0.00 0.00 0.00 82 1013.6
20260906032642 24 338 0.0 1.6 0.00 0.00 0.00 82 1013.6
20260906032142 24 338 0.0 3.2 0.00 0.00 0.00 82 1013.6
20260906032022 25 338 1.6 1.6 0.00 0.00 0.00 80 1013.6
20260906031913 24 338 0.0 3.2 0.00 0.00 0.00 81 1013.6
20260906030641 25 338 0.0 0.0 0.00 0.00 0.00 79 1013.6
20260906030142 25 338 0.0 0.0 0.00 0.00 0.00 79 1013.6
20260906025641 25 338 0.0 0.0 0.00 0.00 0.00 78 1013.6
20260906025144 25 338 0.0 0.0 0.00 0.00 0.00 78 1013.6
20260906024542 25 338 0.0 0.0 0.00 0.00 0.00 77 1013.6
20260906024040 25 338 0.0 0.0 0.00 0.00 0.00 77 1013.6
20260906023544 25 338 0.0 0.0 0.00 0.00 0.00 77 1013.6
20260906023043 25 338 0.0 0.0 0.00 0.00 0.00 77 1013.6
20260906022734 25 338 0.0 0.0 0.00 0.00 0.00 76 1013.6
20260906022001 25 338 0.0 0.0 0.00 0.00 0.00 76 1013.6
20260906021502 25 338 0.0 0.0 0.00 0.00 0.00 75 1013.6
20260906021002 25 338 0.0 0.0 0.00 0.00 0.00 75 1013.6
20260906020452 25 338 0.0 0.0 0.00 0.00 0.00 74 1013.6
20260906015951 25 338 0.0 0.0 0.00 0.00 0.00 74 1013.6
20260906015722 25 338 0.0 0.0 0.00 0.00 0.00 73 1013.6
20260906014952 26 338 0.0 0.0 0.00 0.00 0.00 73 1013.6
20260906014452 26 338 0.0 0.0 0.00 0.00 0.00 72 1013.6
20260906013951 26 338 0.0 0.0 0.00 0.00 0.00 71 1012.6
20260906013452 26 338 0.0 0.0 0.00 0.00 0.00 71 1012.6
20260906012953 26 338 0.0 0.0 0.00 0.00 0.00 70 1011.6
20260906012417 26 338 0.0 0.0 0.00 0.00 0.00 69 1011.6
20260906011912 26 338 0.0 0.0 0.00 0.00 0.00 69 1011.6
20260906011412 26 338 0.0 0.0 0.00 0.00 0.00 68 1011.6
20260906010911 26 338 0.0 0.0 0.00 0.00 0.00 68 1012.6
20260906010411 26 338 0.0 0.0 0.00 0.00 0.00 67 1012.6
20260906005912 27 338 0.0 0.0 0.00 0.00 0.00 66 1012.6
20260906005411 27 338 0.0 0.0 0.00 0.00 0.00 66 1012.6
20260906004911 27 338 0.0 0.0 0.00 0.00 0.00 65 1012.6
20260906004624 27 338 0.0 0.0 0.00 0.00 0.00 64 1012.6
20260906003844 27 338 0.0 0.0 0.00 0.00 0.00 64 1012.6
20260906003344 27 338 0.0 0.0 0.00 0.00 0.00 63 1012.6
20260906002845 27 338 0.0 0.0 0.00 0.00 0.00 62 1012.6
20260906002332 27 338 0.0 0.0 0.00 0.00 0.00 62 1012.6
20260906001832 28 338 0.0 0.0 0.00 0.00 0.00 61 1012.6
20260906001332 28 338 0.0 1.6 0.00 0.00 0.00 60 1013.6
20260906000832 28 338 0.0 1.6 0.00 0.00 0.00 59 1013.6
20260906000333 28 338 0.0 3.2 0.00 0.00 0.00 59 1013.6
20260906000104 28 338 0.0 3.2 0.00 0.00 0.00 58 1012.6
20260905235330 28 338 0.0 1.6 0.00 0.00 0.00 58 1012.6
20260905234835 28 338 0.0 3.2 0.00 0.00 0.00 57 1012.6
20260905234334 29 338 1.6 3.2 0.00 0.00 0.00 56 1011.6
20260905233722 29 338 0.0 1.6 0.00 0.00 0.00 56 1011.6
20260905233222 29 338 0.0 1.6 0.00 0.00 0.00 55 1011.6
20260905232721 30 338 0.0 1.6 0.00 0.00 0.00 54 1012.6
20260905232222 30 338 0.0 0.0 0.00 0.00 0.00 53 1012.6
20260905231720 30 338 0.0 3.2 0.00 0.00 0.00 53 1012.6
20260905231222 30 338 0.0 3.2 0.00 0.00 0.00 52 1012.6
20260905230722 30 338 1.6 3.2 0.00 0.00 0.00 51 1012.6
20260905230455 30 315 0.0 1.6 0.00 0.00 0.00 50 1012.6
20260905225725 31 338 0.0 1.6 0.00 0.00 0.00 50 1011.6
20260905225132 31 315 0.0 1.6 0.00 0.00 0.00 48 1011.6
20260905224903 31 338 0.0 1.6 0.00 0.00 0.00 47 1011.6
20260905224132 31 338 0.0 3.2 0.00 0.00 0.00 47 1011.6
20260905223629 31 158 0.0 4.8 0.00 0.00 0.00 46 1011.6
20260905223112 31 315 1.6 4.8 0.00 0.00 0.00 46 1011.6
20260905222612 32 338 3.2 3.2 0.00 0.00 0.00 45 1011.6
20260905222112 32 0 0.0 3.2 0.00 0.00 0.00 46 1011.6
20260905221611 32 0 1.6 3.2 0.00 0.00 0.00 46 1011.6
20260905221051 32 0 1.6 3.2 0.00 0.00 0.00 46 1012.6
20260905220552 32 180 0.0 3.2 0.00 0.00 0.00 47 1012.6
20260905220052 32 292 0.0 3.2 0.00 0.00 0.00 48 1012.6
20260905215551 32 90 0.0 4.8 0.00 0.00 0.00 48 1012.6
20260905215052 32 158 1.6 4.8 0.00 0.00 0.00 48 1012.6
20260905214551 31 22 1.6 3.2 0.00 0.00 0.00 50 1012.6
20260905214052 31 292 3.2 4.8 0.00 0.00 0.00 50 1011.6
20260905213550 31 135 1.6 4.8 0.00 0.00 0.00 50 1011.6
20260905213052 31 180 0.0 3.2 0.00 0.00 0.00 52 1011.6
20260905212824 30 338 1.6 3.2 0.00 0.00 0.00 52 1012.6
20260905212051 30 0 1.6 4.8 0.00 0.00 0.00 52 1012.6
20260905211551 30 158 0.0 4.8 0.00 0.00 0.00 51 1012.6
20260905211051 30 248 1.6 6.4 0.00 0.00 0.00 51 1012.6
20260905210823 30 202 1.6 6.4 0.00 0.00 0.00 51 1012.6
20260905210020 30 338 1.6 4.8 0.00 0.00 0.00 51 1012.6
20260905205522 31 338 1.6 6.4 0.00 0.00 0.00 51 1012.6
20260905205021 31 292 1.6 6.4 0.00 0.00 0.00 50 1012.6
20260905204522 31 338 1.6 3.2 0.00 0.00 0.00 49 1012.6
20260905204254 31 292 1.6 3.2 0.00 0.00 0.00 49 1012.6
20260905203522 31 315 1.6 3.2 0.00 0.00 0.00 48 1012.6
20260905203025 31 338 1.6 4.8 0.00 0.00 0.00 47 1013.6
20260905203021 31 338 1.6 4.8 0.00 0.00 0.00 48 1012.6
20260905202022 31 158 1.6 3.2 0.00 0.00 0.00 46 1013.6
20260905201751 32 22 1.6 4.8 0.00 0.00 0.00 47 1013.6
20260905201021 32 292 0.0 4.8 0.00 0.00 0.00 46 1013.6
20260905200522 32 202 1.6 6.4 0.00 0.00 0.00 45 1013.6
20260905200022 32 90 1.6 6.4 0.00 0.00 0.00 45 1013.6
20260905195521 33 292 1.6 9.7 0.00 0.00 0.00 43 1013.6
20260905195024 33 292 3.2 9.7 0.00 0.00 0.00 43 1013.6
20260905194944 33 202 3.2 8.0 0.00 0.00 0.00 43 1013.6
20260905194213 33 90 1.6 8.0 0.00 0.00 0.00 45 1013.6
20260905193442 32 338 1.6 6.4 0.00 0.00 0.00 47 1013.6
20260905192942 32 180 3.2 6.4 0.00 0.00 0.00 48 1013.6
20260905192441 32 270 3.2 6.4 0.00 0.00 0.00 48 1013.6
20260905191942 32 292 1.6 4.8 0.00 0.00 0.00 50 1013.6
20260905191441 32 202 3.2 6.4 0.00 0.00 0.00 52 1013.6
20260905190942 31 90 0.0 6.4 0.00 0.00 0.00 53 1014.6
20260905190442 31 68 3.2 4.8 0.00 0.00 0.00 51 1014.6
20260905185942 31 112 1.6 6.4 0.00 0.00 0.00 53 1014.6
20260905185442 31 338 1.6 6.4 0.00 0.00 0.00 53 1014.6
20260905184941 31 315 1.6 4.8 0.00 0.00 0.00 54 1014.6
20260905184711 31 135 3.2 6.4 0.00 0.00 0.00 55 1015.6
20260905183754 30 315 3.2 8.0 0.00 0.00 0.00 57 1015.6
20260905183252 30 68 4.8 9.7 0.00 0.00 0.00 57 1015.6
20260905182752 30 68 4.8 9.7 0.00 0.00 0.00 57 1013.6
20260905182250 30 112 3.2 9.7 0.00 0.00 0.00 59 1013.6
20260905181745 29 0 3.2 14.5 0.00 0.00 0.00 61 1013.6
20260905181212 30 158 6.4 11.3 0.00 0.00 0.00 59 1014.6
20260905180944 30 248 1.6 11.3 0.00 0.00 0.00 59 1014.6
20260905180210 29 248 3.2 9.7 0.00 0.00 0.00 61 1014.6
20260905175710 29 135 6.4 9.7 0.00 0.00 0.00 59 1014.6
20260905175211 30 135 6.4 8.0 0.00 0.00 0.00 61 1014.6
20260905174743 30 112 3.2 9.7 0.00 0.00 0.00 62 1014.6
20260905174243 29 315 4.8 9.7 0.00 0.00 0.00 63 1015.6
20260905173454 28 270 4.8 9.7 0.00 0.00 0.00 65 1015.6
20260905172941 28 22 3.2 9.7 0.00 0.00 0.00 66 1015.6
20260905172442 28 135 1.6 6.4 0.00 0.00 0.00 67 1016.6
20260905172212 28 338 4.8 9.7 0.00 0.00 0.00 66 1016.6
20260905171442 28 45 4.8 9.7 0.00 0.00 0.00 67 1016.6
20260905170945 28 158 1.6 6.4 0.00 0.00 0.00 66 1016.6
20260905170341 28 112 3.2 6.4 0.00 0.00 0.00 67 1016.6
20260905165847 28 270 4.8 6.4 0.00 0.00 0.00 67 1016.6
20260905165843 28 270 3.2 6.4 0.00 0.00 0.00 68 1016.6
20260905165116 28 315 1.6 4.8 0.00 0.00 0.00 68 1016.6
20260905164312 28 338 3.2 6.4 0.00 0.00 0.00 69 1016.6
20260905163812 27 158 3.2 6.4 0.00 0.00 0.00 69 1016.6
20260905163311 27 338 4.8 6.4 0.00 0.00 0.00 68 1016.6
20260905162814 28 315 4.8 9.7 0.00 0.00 0.00 68 1016.6
20260905162311 27 248 6.4 9.7 0.00 0.00 0.00 69 1016.6
20260905161810 27 338 3.2 9.7 0.00 0.00 0.00 69 1016.6
20260905161312 27 0 3.2 9.7 0.00 0.00 0.00 69 1017.7
20260905160811 27 0 3.2 9.7 0.00 0.00 0.00 69 1017.7
20260905160308 27 338 4.8 8.0 0.00 0.00 0.00 69 1017.7
20260905155742 28 180 3.2 9.7 0.00 0.00 0.00 68 1016.6
20260905155242 28 202 3.2 12.9 0.00 0.00 0.00 66 1016.6
20260905154740 28 292 3.2 12.9 0.00 0.00 0.00 67 1016.6
20260905154241 28 158 3.2 6.4 0.00 0.00 0.00 67 1015.6
20260905154013 28 338 3.2 6.4 0.00 0.00 0.00 68 1015.6
20260905153242 28 248 3.2 9.7 0.00 0.00 0.00 68 1015.6
20260905152742 28 315 4.8 9.7 0.00 0.00 0.00 68 1015.6
20260905152242 28 90 3.2 4.8 0.00 0.00 0.00 68 1015.6
20260905151741 28 270 4.8 4.8 0.00 0.00 0.00 67 1015.6
20260905151514 28 0 3.2 4.8 0.00 0.00 0.00 69 1015.6
20260905150743 28 202 0.0 6.4 0.00 0.00 0.00 71 1015.6
20260905150241 28 158 3.2 6.4 0.00 0.00 0.00 72 1015.6
20260905145853 28 90 3.2 6.4 0.00 0.00 0.00 71 1015.6
20260905145121 28 315 1.6 4.8 0.00 0.00 0.00 73 1015.6
20260905144621 28 202 3.2 4.8 0.00 0.00 0.00 74 1015.6
20260905144122 28 112 3.2 6.4 0.00 0.00 0.00 74 1014.6